Location: Walnut Point State Park
(39.6958°N, 88.0345°W)
Time: 03:40:52
(UTC-05:00)

Amateur Radio Satellites - All Passes

Search period start: 29 July 2014 03:10
Search period end: 30 July 2014 03:10
Location: Walnut Point State Park, 39.6958°N, 88.0345°W

Satellite Date Start Highest point End Downlink Frequencies (MHz)
Time Altitude Azimuth
Sapphire 29 Jul 03:14:29 03:16:03 11° 322° (NW) 03:17:38 437.095 MHz 1200 baud AX-25 AFSK
Gurwin Techsat 1B 29 Jul 03:21:42 03:26:47 44° 99° (E) 03:31:49 435.225 FM
Oscar 19 29 Jul 03:30:53 03:35:18 29° 293° (WNW) 03:39:43 437.125 CW, 437.150 USB
AO-Echo 29 Jul 03:47:14 03:51:57 40° 290° (WNW) 03:56:30 ?
AO-7 29 Jul 03:47:52 03:52:57 17° 91° (E) 03:58:00 29.400 - 29.500 MHz
Oscar 16 29 Jul 04:00:21 04:03:24 16° 298° (WNW) 04:06:28 437.025 USB, Beacon 2401.1428
OPAL 29 Jul 04:01:30 04:06:27 89° 73° (ENE) 04:11:25 ?
Uosat F 29 Jul 04:06:26 04:09:46 18° 93° (E) 04:13:05 435.120 FM
JAS-1B 29 Jul 04:17:56 04:27:10 62° 291° (WNW) 04:35:04 435.800 - 435.900 CW/SSB
ITAMSAT 1 29 Jul 04:20:31 04:24:30 23° 295° (WNW) 04:28:28 435.822 SSB
ISS 29 Jul 04:21:57 04:24:00 15° 16° (NNE) 04:26:03 145.800 FM
KITSAT 1 29 Jul 04:30:21 04:33:22 12° 98° (E) 04:36:22 435.175 FM
TMSAT-1 29 Jul 04:37:08 04:42:15 50° 288° (WNW) 04:47:20 436.925 FM
AO-27 29 Jul 04:40:36 04:43:31 15° 299° (WNW) 04:46:27 436.795 MHz FM
Uribyol 2 29 Jul 04:40:58 04:43:42 15° 299° (WNW) 04:46:26 436.500 FM
PANSAT 29 Jul 04:50:18 04:51:18 11° 166° (SSE) 04:52:17 not established
Gurwin Techsat 1B 29 Jul 05:02:21 05:06:26 23° 295° (WNW) 05:10:31 435.225 FM
AO-7 29 Jul 05:38:20 05:46:43 90° 288° (WNW) 05:55:01 29.400 - 29.500 MHz
Uosat F 29 Jul 05:43:59 05:48:50 50° 289° (WNW) 05:53:38 435.120 FM
ISS 29 Jul 05:57:57 06:01:17 58° 35° (NE) 06:04:36 145.800 FM
MaSat-1 29 Jul 05:59:46 06:04:15 27° 54° (NE) 06:08:33 437.345 MHz
JAS-2 29 Jul 06:03:57 06:07:54 19° 89° (E) 06:11:35 435.800 - 435.900 CW/SSB, 435.910 FM
JAS-1B 29 Jul 06:10:55 06:15:33 15° 313° (NW) 06:19:56 435.800 - 435.900 CW/SSB
KITSAT 1 29 Jul 06:19:18 06:27:21 74° 116° (ESE) 06:35:25 435.175 FM
STRAND 1 29 Jul 06:24:47 06:29:44 51° 72° (ENE) 06:34:43 ?
Hamsat 29 Jul 06:26:59 06:31:02 39° 98° (E) 06:35:05 145.90 MHz
PANSAT 29 Jul 06:28:25 06:30:46 16° 179° (S) 06:33:06 not established
Saudisat 1A 29 Jul 07:05:13 07:09:09 32° 114° (ESE) 07:13:05 436.775 MHz
AO-7 29 Jul 07:32:43 07:38:24 21° 308° (NW) 07:44:04 29.400 - 29.500 MHz
ISS 29 Jul 07:35:42 07:37:40 15° 230° (SW) 07:39:37 145.800 FM
MaSat-1 29 Jul 07:36:47 07:41:46 42° 252° (WSW) 07:46:25 437.345 MHz
JAS-2 29 Jul 07:47:45 07:53:31 53° 289° (WNW) 07:58:43 435.800 - 435.900 CW/SSB, 435.910 FM
Hamsat 29 Jul 08:03:47 08:06:42 18° 293° (WNW) 08:09:38 145.90 MHz
STRAND 1 29 Jul 08:05:43 08:09:12 18° 267° (W) 08:12:42 ?
PANSAT 29 Jul 08:08:47 08:10:15 12° 192° (SSW) 08:11:42 not established
KITSAT 1 29 Jul 08:16:39 08:23:28 29° 317° (NW) 08:30:20 435.175 FM
SO-67 29 Jul 08:22:07 08:25:31 52° 285° (WNW) 08:28:53 435.3500 MHz FM
Sapphire 29 Jul 08:33:00 08:36:08 15° 43° (NE) 08:39:15 437.095 MHz 1200 baud AX-25 AFSK
Saudisat 1A 29 Jul 08:44:56 08:48:44 27° 311° (NW) 08:52:33 436.775 MHz
PCSat 29 Jul 09:05:29 09:10:05 27° 50° (NE) 09:14:39 145.825 MHz
Oscar 11 29 Jul 09:29:27 09:31:12 12° 91° (E) 09:32:57 145.825 FM, Beacon 2401.500 USB
HO-68 29 Jul 09:56:10 10:03:18 68° 104° (ESE) 10:10:23 435.675 MHz FM
Sapphire 29 Jul 10:14:53 10:20:20 88° 63° (ENE) 10:25:46 437.095 MHz 1200 baud AX-25 AFSK
UKube-1 29 Jul 10:18:31 10:22:54 87° 103° (ESE) 10:27:14 145.840 MHz, 145.915 MHz
KITSAT 1 29 Jul 10:21:20 10:22:14 10° 345° (NNW) 10:23:08 435.175 FM
PCSat 29 Jul 10:48:32 10:53:39 44° 248° (WSW) 10:58:45 145.825 MHz
Oscar 11 29 Jul 11:03:28 11:07:43 55° 286° (WNW) 11:11:57 145.825 FM, Beacon 2401.500 USB
FUNcube-1 29 Jul 11:25:44 11:29:55 87° 283° (WNW) 11:34:09 145.950 - 145.970 MHz USB
HO-68 29 Jul 11:44:59 11:50:22 24° 301° (WNW) 11:55:45 435.675 MHz FM
SO-50 29 Jul 11:51:47 11:55:34 28° 113° (ESE) 11:59:25 436.795 FM
RS-15 29 Jul 12:00:28 12:08:54 26° 103° (ESE) 12:17:09 29.354 - 29.394 USB, Beacon 29.352 USB
Oscar 16 29 Jul 12:01:19 12:02:14 11° 59° (ENE) 12:03:10 437.025 USB, Beacon 2401.1428
Sapphire 29 Jul 12:01:28 12:02:56 11° 258° (WSW) 12:04:24 437.095 MHz 1200 baud AX-25 AFSK
KITSAT 1 29 Jul 12:20:20 12:22:25 11° 18° (NNE) 12:24:30 435.175 FM
Uribyol 2 29 Jul 12:41:07 12:43:12 12° 60° (ENE) 12:45:17 436.500 FM
AO-27 29 Jul 12:41:16 12:43:12 12° 59° (ENE) 12:45:08 436.795 MHz FM
Oscar 19 29 Jul 13:07:32 13:12:21 43° 71° (ENE) 13:17:11 437.125 CW, 437.150 USB
JAS-1B 29 Jul 13:10:34 13:17:52 28° 56° (ENE) 13:25:36 435.800 - 435.900 CW/SSB
AO-Echo 29 Jul 13:20:45 13:25:15 29° 67° (ENE) 13:29:46 ?
SO-50 29 Jul 13:32:02 13:36:02 31° 310° (NW) 13:40:07 436.795 FM
Oscar 16 29 Jul 13:35:39 13:40:45 85° 76° (ENE) 13:45:55 437.025 USB, Beacon 2401.1428
UOSAT-12 29 Jul 13:49:55 13:53:59 32° 114° (ESE) 13:58:08 437.025 FM, 437.400 FM
ITAMSAT 1 29 Jul 13:57:29 14:02:36 61° 73° (ENE) 14:07:45 435.822 SSB
RS-15 29 Jul 14:08:49 14:20:00 80° 303° (WNW) 14:30:59 29.354 - 29.394 USB, Beacon 29.352 USB
KITSAT 1 29 Jul 14:13:47 14:20:55 33° 45° (NE) 14:27:59 435.175 FM
AO-27 29 Jul 14:16:43 14:21:57 87° 256° (WSW) 14:27:12 436.795 MHz FM
Uribyol 2 29 Jul 14:16:44 14:21:57 84° 256° (WSW) 14:27:10 436.500 FM
TMSAT-1 29 Jul 14:18:09 14:22:37 29° 67° (ENE) 14:27:06 436.925 FM
Gurwin Techsat 1B 29 Jul 14:41:55 14:47:10 65° 73° (ENE) 14:52:26 435.225 FM
AO-7 29 Jul 14:45:56 14:52:23 26° 55° (NE) 14:58:51 29.400 - 29.500 MHz
Oscar 19 29 Jul 14:48:02 14:51:51 21° 266° (W) 14:55:42 437.125 CW, 437.150 USB
JAS-1B 29 Jul 14:58:22 15:07:11 80° 257° (WSW) 15:17:07 435.800 - 435.900 CW/SSB
AO-Echo 29 Jul 14:59:01 15:03:51 35° 263° (W) 15:08:43 ?
Uosat F 29 Jul 15:18:50 15:22:48 24° 66° (ENE) 15:26:47 435.120 FM
Oscar 16 29 Jul 15:20:33 15:20:44 10° 271° (W) 15:20:54 437.025 USB, Beacon 2401.1428
UOSAT-12 29 Jul 15:30:03 15:34:07 30° 311° (NW) 15:38:15 437.025 FM, 437.400 FM
Saudisat 1A 29 Jul 15:32:43 15:36:16 23° 47° (NE) 15:39:48 436.775 MHz
ITAMSAT 1 29 Jul 15:39:26 15:42:29 16° 268° (W) 15:45:32 435.822 SSB
TMSAT-1 29 Jul 15:57:35 16:02:23 35° 263° (W) 16:07:14 436.925 FM
KITSAT 1 29 Jul 16:08:51 16:16:48 63° 246° (WSW) 16:24:41 435.175 FM
OPAL 29 Jul 16:12:38 16:16:46 25° 97° (E) 16:20:56 ?
JAS-2 29 Jul 16:17:07 16:19:49 12° 55° (NE) 16:22:27 435.800 - 435.900 CW/SSB, 435.910 FM
Gurwin Techsat 1B 29 Jul 16:24:38 16:27:34 15° 269° (W) 16:30:31 435.225 FM
RS-15 29 Jul 16:25:25 16:34:20 27° 330° (NNW) 16:43:15 29.354 - 29.394 USB, Beacon 29.352 USB
AO-7 29 Jul 16:36:01 16:44:22 75° 254° (WSW) 16:52:47 29.400 - 29.500 MHz
JAS-1B 29 Jul 16:53:48 16:59:10 17° 277° (W) 17:04:53 435.800 - 435.900 CW/SSB
Uosat F 29 Jul 16:56:38 17:01:21 39° 262° (W) 17:06:05 435.120 FM
Saudisat 1A 29 Jul 17:11:52 17:15:59 39° 244° (WSW) 17:20:04 436.775 MHz
Hamsat 29 Jul 17:20:05 17:23:30 25° 69° (ENE) 17:26:57 145.90 MHz
OPAL 29 Jul 17:51:03 17:55:43 38° 293° (WNW) 18:00:26 ?
JAS-2 29 Jul 17:55:56 18:03:36 63° 72° (ENE) 18:10:47 435.800 - 435.900 CW/SSB, 435.910 FM
AO-7 29 Jul 18:35:04 18:38:25 13° 272° (W) 18:41:46 29.400 - 29.500 MHz
STRAND 1 29 Jul 18:37:19 18:40:46 18° 93° (E) 18:44:12 ?
RS-15 29 Jul 18:45:13 18:52:06 18° 6° (N) 18:59:02 29.354 - 29.394 USB, Beacon 29.352 USB
SO-67 29 Jul 18:54:23 18:57:38 39° 74° (ENE) 19:00:54 435.3500 MHz FM
Hamsat 29 Jul 18:55:56 18:59:24 25° 265° (W) 19:02:53 145.90 MHz
JAS-2 29 Jul 19:42:34 19:48:52 27° 267° (W) 19:54:56 435.800 - 435.900 CW/SSB, 435.910 FM
STRAND 1 29 Jul 20:15:18 20:20:14 50° 289° (WNW) 20:25:08 ?
HO-68 29 Jul 20:23:40 20:30:26 47° 66° (ENE) 20:37:12 435.675 MHz FM
SO-50 29 Jul 20:23:44 20:27:38 25° 47° (NE) 20:31:34 436.795 FM
SO-67 29 Jul 20:30:21 20:30:54 10° 269° (W) 20:31:27 435.3500 MHz FM
RS-15 29 Jul 20:59:09 21:09:05 36° 40° (NE) 21:19:14 29.354 - 29.394 USB, Beacon 29.352 USB
UKube-1 29 Jul 21:13:02 21:17:22 68° 75° (ENE) 21:21:44 145.840 MHz, 145.915 MHz
MaSat-1 29 Jul 21:26:41 21:30:42 74° 296° (WNW) 21:35:26 437.345 MHz
Oscar 11 29 Jul 21:57:23 22:01:41 80° 258° (WSW) 22:06:01 145.825 FM, Beacon 2401.500 USB
SO-50 29 Jul 22:03:51 22:08:22 43° 244° (WSW) 22:12:56 436.795 FM
HO-68 29 Jul 22:11:58 22:18:15 33° 263° (W) 22:24:34 435.675 MHz FM
UOSAT-12 29 Jul 22:20:09 22:24:07 26° 47° (NE) 22:28:01 437.025 FM, 437.400 FM
FUNcube-1 29 Jul 22:21:15 22:25:32 67° 75° (ENE) 22:29:45 145.950 - 145.970 MHz USB
ISS 29 Jul 22:39:56 22:42:51 28° 134° (SE) 22:45:47 145.800 FM
MaSat-1 29 Jul 23:08:50 23:09:06 10° 318° (NW) 23:09:22 437.345 MHz
RS-15 29 Jul 23:11:23 23:22:23 74° 244° (WSW) 23:33:50 29.354 - 29.394 USB, Beacon 29.352 USB
Sapphire 29 Jul 23:16:25 23:18:24 12° 102° (ESE) 23:20:24 437.095 MHz 1200 baud AX-25 AFSK
PCSat 29 Jul 23:46:53 23:51:19 27° 108° (ESE) 23:55:47 145.825 MHz
UOSAT-12 29 Jul 23:59:58 00:04:23 40° 245° (WSW) 00:08:44 437.025 FM, 437.400 FM
ISS 30 Jul 00:16:27 00:19:30 33° 331° (NNW) 00:22:35 145.800 FM
Sapphire 30 Jul 00:55:38 01:01:02 83° 298° (WNW) 01:06:29 437.095 MHz 1200 baud AX-25 AFSK
Oscar 19 30 Jul 01:21:03 01:24:16 16° 92° (E) 01:27:29 437.125 CW, 437.150 USB
RS-15 30 Jul 01:27:22 01:32:47 15° 263° (W) 01:38:18 29.354 - 29.394 USB, Beacon 29.352 USB
PCSat 30 Jul 01:29:24 01:34:30 41° 305° (NW) 01:39:39 145.825 MHz
Oscar 16 30 Jul 01:48:32 01:53:08 32° 97° (E) 01:57:44 437.025 USB, Beacon 2401.1428
ISS 30 Jul 01:55:34 01:57:02 12° 350° (N) 01:58:30 145.800 FM
ITAMSAT 1 30 Jul 02:11:59 02:16:02 23° 94° (E) 02:20:04 435.822 SSB
Uribyol 2 30 Jul 02:30:38 02:35:24 37° 98° (E) 02:40:08 436.500 FM
AO-27 30 Jul 02:30:58 02:35:43 35° 98° (E) 02:40:26 436.795 MHz FM
TMSAT-1 30 Jul 02:36:59 02:38:26 11° 89° (E) 02:39:52 436.925 FM
Sapphire 30 Jul 02:42:25 02:45:19 14° 318° (NW) 02:48:13 437.095 MHz 1200 baud AX-25 AFSK
JAS-1B 30 Jul 02:46:57 02:55:27 40° 93° (E) 03:02:44 435.800 - 435.900 CW/SSB
Oscar 19 30 Jul 02:58:53 03:03:57 57° 287° (WNW) 03:09:00 437.125 CW, 437.150 USB
Gurwin Techsat 1B 30 Jul 02:59:30 03:04:01 28° 95° (E) 03:08:29 435.225 FM
